Weather History for Reading, PA

Change the Weather History Date:

Thursday, April 11, 2013

  Actual Average Record
Temperature  
Mean Temperature 60 °F 50 °F  
Max Temperature 68 °F 61 °F 85 °F (2011)
Min Temperature 52 °F 39 °F 23 °F (1909)
Degree Days  
Heating Degree Days 5 15  
Month to date heating degree days 155 183  
Since 1 July heating degree days 4642 4968  
Cooling Degree Days 0 0  
Month to date cooling degree days 15 0  
Year to date cooling degree days 15 0  
Growing Degree Days 10 (Base 50)    
Moisture  
Dew Point 55 °F    
Average Humidity 82    
Maximum Humidity 97    
Minimum Humidity 67    
Precipitation  
Precipitation T in 0.13 in 1.55 in (1894)
Month to date precipitation 0.52 1.46  
Year to date precipitation 7.56 10.47  
Sea Level Pressure  
Sea Level Pressure 29.88 in    
Wind  
Wind Speed 8 mph (ENE)    
Max Wind Speed 18 mph    
Max Gust Speed 26 mph    
Visibility 9 miles    
Events Rain    
T = Trace of Precipitation, MM = Missing Value Source: NWS Daily Summary

Daily Weather History Graph

Daily Weather History Graph

Search for Another Location

Airport:

Trip Planner

Search our weather history database for the weather conditions in past years. The results will help you decide how hot, cold, wet, or windy it might be!

Date:

Astronomy

Apr. 11, 2013 Rise Set
Actual Time 6:31 AM EDT 7:38 PM EDT
Civil Twilight 6:03 AM EDT 8:06 PM EDT
Nautical Twilight 5:30 AM EDT 8:40 PM EDT
Astronomical Twilight 4:55 AM EDT 9:15 PM EDT
Moon 7:01 AM EDT (4/11) 9:11 PM EDT (4/11)
Length of Visible Light 14h 03m
Length of Day
13h 07m
New Moon, 2% of the Moon is Illuminated
Apr 11
New Moon
Apr 18
First Quarter
Apr 25
Full
May 2
Last Quarter
May 9
New

Hourly Weather History & Observations

Time (EDT) Temp. Dew Point Humidity Pressure Visibility Wind Dir Wind Speed Gust Speed Precip Events Conditions
12:54 AM 63.0 °F 61.0 °F 93% 29.90 in 10.0 mi Calm Calm - N/A   Mostly Cloudy
1:36 AM 62.6 °F 60.8 °F 94% 29.81 in 0.8 mi ESE 3.5 mph - 0.00 in Rain Light Rain
1:47 AM 62.6 °F 60.8 °F 94% 29.80 in 3.0 mi SE 5.8 mph - 0.00 in Rain Light Rain
1:54 AM 63.0 °F 60.1 °F 90% 29.80 in 10.0 mi SSE 3.5 mph - 0.00 in Rain Light Rain
2:54 AM 62.1 °F 60.1 °F 93% 29.82 in 10.0 mi Calm Calm - 0.00 in   Clear
3:54 AM 62.1 °F 60.1 °F 93% 29.84 in 8.0 mi Calm Calm - N/A   Clear
4:54 AM 62.1 °F 59.0 °F 90% 29.86 in 10.0 mi Calm Calm - N/A   Clear
5:54 AM 60.1 °F 59.0 °F 96% 29.88 in 8.0 mi South 4.6 mph - N/A   Overcast
6:54 AM 60.1 °F 59.0 °F 96% 29.88 in 8.0 mi North 3.5 mph - N/A   Mostly Cloudy
7:29 AM 60.8 °F 57.2 °F 88% 29.88 in 8.0 mi NNE 9.2 mph - N/A   Mostly Cloudy
7:36 AM 60.8 °F 55.4 °F 82% 29.89 in 8.0 mi NNE 8.1 mph - N/A   Scattered Clouds
7:54 AM 60.1 °F 55.9 °F 86% 29.89 in 8.0 mi NNE 8.1 mph - N/A   Partly Cloudy
8:54 AM 62.1 °F 55.0 °F 78% 29.90 in 10.0 mi North 6.9 mph - N/A   Mostly Cloudy
9:06 AM 62.6 °F 55.4 °F 77% 29.89 in 10.0 mi North 6.9 mph - N/A   Mostly Cloudy
9:54 AM 61.0 °F 54.0 °F 78% 29.92 in 10.0 mi NNE 9.2 mph - N/A   Mostly Cloudy
10:54 AM 63.0 °F 55.0 °F 75% 29.93 in 10.0 mi NE 5.8 mph - N/A   Overcast
11:54 AM 64.9 °F 55.9 °F 73% 29.92 in 10.0 mi North 9.2 mph - N/A   Overcast
1:54 PM 68.0 °F 57.0 °F 68% 29.88 in 10.0 mi East 8.1 mph - N/A   Overcast
2:54 PM 66.9 °F 55.9 °F 68% 29.87 in 10.0 mi East 11.5 mph 16.1 mph N/A   Overcast
3:54 PM 64.0 °F 55.9 °F 75% 29.88 in 10.0 mi ESE 9.2 mph - N/A   Overcast
4:54 PM 61.0 °F 53.1 °F 75% 29.88 in 10.0 mi East 9.2 mph - N/A   Overcast
5:54 PM 62.1 °F 52.0 °F 70% 29.88 in 10.0 mi ESE 9.2 mph 21.9 mph N/A   Overcast
6:54 PM 60.1 °F 51.1 °F 72% 29.89 in 10.0 mi East 8.1 mph 20.7 mph N/A   Overcast
7:54 PM 57.9 °F 48.9 °F 72% 29.89 in 10.0 mi East 15.0 mph 24.2 mph N/A   Overcast
8:54 PM 55.9 °F 48.0 °F 75% 29.91 in 10.0 mi East 12.7 mph 21.9 mph N/A   Overcast
9:54 PM 54.0 °F 46.9 °F 77% 29.94 in 10.0 mi East 12.7 mph 21.9 mph N/A   Overcast
10:54 PM 53.1 °F 46.0 °F 77% 29.94 in 10.0 mi East 12.7 mph 19.6 mph N/A   Overcast
11:54 PM 52.0 °F 44.1 °F 74% 29.91 in 10.0 mi East 12.7 mph 18.4 mph N/A   Overcast